sat.trackr.live / text

‹ back to catalog

ONEWEB-0306

NORAD 49188 · 2021-083C

PAYLOAD ACTIVE UNKNOWN

§ Identity

Operator
Country
UK
Launch date
2021-09-14
Launch site
TYMSC
Launch vehicle
Mass (kg)
RCS (m²)

Purposes: comms

External: N2YO · Heavens-Above · Gunter

§ Orbital elements

Epoch: 2026-05-25T01:48:42.931296Z

Period
109.20 min
Inclination
87.9170°
Eccentricity
0.0001598
Mean motion
13.18685464 rev/d
Perigee alt
1,188.5 km
Apogee alt
1,191.0 km
Semi-major
7,567.9 km
B*
1.4406e-5
RAAN
340.0433°
Arg perigee
87.9217°
Mean anomaly
272.2098°
Rev number
22,697

§ Raw data

ONEWEB-03061 49188U 21083C   26145.07549689  .00000019  00000+0  14406-4 0  99982 49188  87.9170 340.0433 0001598  87.9217 272.2098 13.18685464226970

JSON: /api/v1/satellites/49188 · /tle

For live sub-satellite position, see the globe view (requires WebGL).

§ Visibility from observer

Set your observer location to see the next 7 days of passes ≥ 10°. The values pass through the URL so the page stays shareable.

No JS? Fill the form by hand. The geolocation button needs JavaScript.